Weather History for KHOB - May, 2014

Change the Weather History Date:

Saturday, May 10, 2014

  Actual Average Record
Temperature  
Mean Temperature 73 °F -  
Max Temperature 91 °F 84 °F 98 °F (2000)
Min Temperature 55 °F 54 °F 44 °F (2015)
Cooling Degree Days 8    
Growing Degree Days 23 (Base 50)    
Moisture  
Dew Point 14 °F    
Average Humidity 11    
Maximum Humidity 17    
Minimum Humidity 6    
Precipitation  
Precipitation 0.00 in - - ()
Sea Level Pressure  
Sea Level Pressure 29.82 in    
Wind  
Wind Speed 9 mph (SW)    
Max Wind Speed 26 mph    
Max Gust Speed 33 mph    
Visibility 10 miles    
Events      
Averages and records for this station are not official NWS values.
T = Trace of Precipitation, MM = Missing Value Source: NWS Daily Summary

Daily Weather History Graph

Daily Weather History Graph

Search for Another Location

Airport or City:

Trip Planner

Search our weather history database for the weather conditions in past years. The results will help you decide how hot, cold, wet, or windy it might be!

Date:

Astronomy

May. 10, 2014 Rise Set
Actual Time 5:57 AM MDT 7:41 PM MDT
Civil Twilight 5:31 AM MDT 8:07 PM MDT
Nautical Twilight 4:58 AM MDT 8:40 PM MDT
Astronomical Twilight 4:24 AM MDT 9:14 PM MDT
Moon 3:52 PM MDT (5/10) 3:17 AM MDT (5/10)
Length of Visible Light 14h 36m
Length of Day
13h 43m
Waxing Gibbous, 82% of the Moon is Illuminated
May 10
Waxing Gibbous
May 14
Full
May 21
Last Quarter
May 28
New
Jun 5
First Quarter

Hourly Weather History & Observations

Time (MDT) Temp. Dew Point Humidity Pressure Visibility Wind Dir Wind Speed Gust Speed Precip Events Conditions
12:15 AM 62.6 °F 8.6 °F 12% 29.91 in 10.0 mi WSW 8.1 mph - N/A   Clear
12:35 AM 59.0 °F 8.6 °F 14% 29.91 in 10.0 mi SW 5.8 mph - N/A   Clear
12:55 AM 59.0 °F 8.6 °F 14% 29.91 in 10.0 mi SSE 3.5 mph - N/A   Clear
1:15 AM 59.0 °F 8.6 °F 14% 29.91 in 10.0 mi South 3.5 mph - N/A   Clear
1:35 AM 57.2 °F 8.6 °F 14% 29.90 in 10.0 mi Calm Calm - N/A   Clear
1:55 AM 57.2 °F 8.6 °F 14% 29.89 in 10.0 mi Calm Calm - N/A   Clear
2:15 AM 57.2 °F 8.6 °F 14% 29.89 in 10.0 mi South 5.8 mph - N/A   Clear
2:35 AM 55.4 °F 10.4 °F 17% 29.89 in 10.0 mi SSW 8.1 mph - N/A   Clear
2:55 AM 57.2 °F 10.4 °F 16% 29.88 in 10.0 mi SW 9.2 mph - N/A   Clear
3:15 AM 57.2 °F 8.6 °F 14% 29.88 in 10.0 mi SW 9.2 mph - N/A   Clear
3:35 AM 57.2 °F 10.4 °F 16% 29.88 in 10.0 mi SSW 6.9 mph - N/A   Clear
3:55 AM 55.4 °F 10.4 °F 17% 29.88 in 10.0 mi SW 9.2 mph - N/A   Clear
5:50 AM 55.4 °F 8.6 °F 15% 29.89 in 10.0 mi SSW 9.2 mph - N/A   Clear
6:50 AM 55.4 °F 10.4 °F 17% 29.91 in 10.0 mi Calm Calm - N/A   Clear
7:50 AM 64.4 °F 12.2 °F 13% 29.92 in 10.0 mi Calm Calm - N/A   Clear
9:50 AM 80.6 °F 19.4 °F 10% 29.93 in 10.0 mi South 4.6 mph - N/A   Clear
10:50 AM 82.4 °F 23.0 °F 11% 29.92 in 10.0 mi WSW 6.9 mph - N/A   Clear
11:50 AM 84.2 °F 19.4 °F 9% 29.89 in 10.0 mi SSW 12.7 mph 18.4 mph N/A   Clear
12:50 PM 86.0 °F 17.6 °F 8% 29.86 in 10.0 mi SSW 11.5 mph 26.5 mph N/A   Clear
1:50 PM 87.8 °F 17.6 °F 8% 29.83 in 10.0 mi SSW 17.3 mph 24.2 mph N/A   Clear
2:50 PM 91.4 °F 15.8 °F 6% 29.79 in 10.0 mi SSW 23.0 mph 33.4 mph N/A   Clear
3:50 PM 89.6 °F 15.8 °F 7% 29.77 in 10.0 mi SSW 20.7 mph 33.4 mph N/A   Clear
4:50 PM 89.6 °F 14.0 °F 6% 29.74 in 10.0 mi SSW 26.5 mph 32.2 mph N/A   Clear
5:15 PM 89.6 °F 15.8 °F 7% 29.74 in 10.0 mi SW 25.3 mph 33.4 mph N/A   Clear
5:35 PM 89.6 °F 15.8 °F 7% 29.74 in 10.0 mi SW 20.7 mph 32.2 mph N/A   Clear
5:50 PM 89.6 °F 15.8 °F 7% 29.73 in 10.0 mi SSW 20.7 mph 27.6 mph N/A   Clear
5:55 PM 89.6 °F 15.8 °F 7% 29.73 in 10.0 mi SSW 23.0 mph 27.6 mph N/A   Clear
6:15 PM 87.8 °F 15.8 °F 7% 29.74 in 10.0 mi SSW 16.1 mph 27.6 mph N/A   Clear
6:35 PM 87.8 °F 15.8 °F 7% 29.74 in 10.0 mi SW 19.6 mph 26.5 mph N/A   Clear
6:55 PM 86.0 °F 15.8 °F 7% 29.74 in 10.0 mi SW 18.4 mph 21.9 mph N/A   Clear
7:15 PM 84.2 °F 15.8 °F 8% 29.74 in 10.0 mi SW 15.0 mph 23.0 mph N/A   Clear
7:35 PM 82.4 °F 15.8 °F 8% 29.74 in 10.0 mi SW 11.5 mph - N/A   Clear
7:55 PM 80.6 °F 15.8 °F 9% 29.75 in 10.0 mi SW 8.1 mph - N/A   Clear
8:15 PM 75.2 °F 14.0 °F 10% 29.76 in 10.0 mi SSW 3.5 mph - N/A   Clear
8:35 PM 73.4 °F 14.0 °F 10% 29.77 in 10.0 mi SSW 6.9 mph - N/A   Clear
9:15 PM 69.8 °F 14.0 °F 12% 29.77 in 10.0 mi SW 5.8 mph - N/A   Clear
9:35 PM 68.0 °F 14.0 °F 12% 29.77 in 10.0 mi SSW 10.4 mph - N/A   Clear
9:55 PM 68.0 °F 14.0 °F 12% 29.77 in 10.0 mi SSW 6.9 mph - N/A   Clear
10:15 PM 68.0 °F 14.0 °F 12% 29.77 in 10.0 mi WSW 8.1 mph - N/A   Clear
10:35 PM 68.0 °F 14.0 °F 12% 29.76 in 10.0 mi WSW 4.6 mph - N/A   Clear
10:55 PM 66.2 °F 14.0 °F 13% 29.76 in 10.0 mi WSW 9.2 mph - N/A   Clear
11:15 PM 66.2 °F 14.0 °F 13% 29.75 in 10.0 mi WSW 8.1 mph - N/A   Clear
11:35 PM 68.0 °F 14.0 °F 12% 29.75 in 10.0 mi SW 3.5 mph - N/A   Clear
11:55 PM 66.2 °F 14.0 °F 13% 29.74 in 10.0 mi SW 6.9 mph - N/A   Clear